Location: Bernay
(48.6766°N, 2.9386°E)
Time: 22:20:56
(UTC+00:00)

USA 238 - Pass Details

Date: 12 January 2026
Orbit: 883 x 1328 km, 63.4° (Epoch: 10 January)

Event Time Altitude Azimuth Distance (km) Brightness Sun altitude
Rises 18:37:27 0° 317° (NW) 3,957 7.2 -22.6°
Reaches altitude 10° 18:40:03 10° 316° (NW) 3,056 6.5 -23.0°
Maximum altitude 18:47:24 72° 234° (SW) 1,297 4.2 -24.2°
Drops below altitude 10° 18:55:25 10° 152° (SSE) 3,310 6.0 -25.6°
Enters shadow 18:56:25 - 152° (SSE) 3,650 6.2 -25.7°
